[[{"header":{"parameterUnit":"m.s-1","parameterCategory":2,"la1":30.2991,"la2":30.254,"lo1":-89.0895,"lo2":-89.0444,"dy":0.0017,"dx":0.0017,"nx":28,"ny":28,"refTime":"2025-07-09T09:00:00:Z","depth":"0","parameterNumber":2,"parameterNumberName":"U-component_of_CURRENTS"},"data":[0,0,0,0,0,0,0,0,0,0,0,0,0,0,0,0,0,0,0,0,0,0,0,0,0,0,0,0,0,0,0,0,0,0,0,0,0,0,0,0,0,0,0,0,0,0,0,0,0,0,0,0,0,0,0,0,0,0,0.4332,0.4333,0,0.4435,0.4436,0.4437,0.4419,0.4418,0.4416,0.4415,0.4398,0.4399,0.44,0,0,0,0,0,0,0,0,0,0,0,0,0,0.3918,0.3927,0.4331,0.4333,0.4335,0.4435,0.4436,0.4437,0.442,0.4418,0.4416,0.4414,0.4398,0.4399,0.44,0,0,0,0,0,0,0,0,0,0,0,0,0,0.4064,0.3929,0.4331,0.4341,0.4343,0.4435,0.4436,0.4437,0.442,0.4418,0.4416,0.4413,0.4397,0.4398,0.44,0.4452,0,0,0.4404,0.4405,0,0,0,0,0,0,0,0,0.4056,0.4079,0.4338,0.434,0.4343,0.4415,0.4284,0.4438,0.4421,0.4387,0.4415,0.4412,0.4396,0.4398,0.4419,0.4452,0.4451,0.4404,0.4405,0.4406,0.4406,0,0,0,0,0,0,0,0.4046,0.4073,0.4369,0.434,0.4343,0.4271,0.4291,0.4312,0.4398,0.439,0.439,0.4408,0.4396,0.4418,0.4418,0.4451,0.4404,0.4405,0.4406,0.4407,0.4516,0.4518,0,0,0,0,0,0,0.4056,0.4067,0.4366,0.4372,0.4195,0.4282,0.4303,0.4391,0.44,0.4402,0.4409,0.4406,0.4416,0.4416,0.4417,0.4467,0.4406,0.4407,0.4408,0.4514,0.4516,0.4518,0,0,0,0,0,0,0.4048,0.4085,0.4361,0.4218,0.4249,0.4293,0.439,0.4395,0.4411,0.4417,0.4415,0.4421,0.4415,0.4415,0.4442,0.4466,0.4407,0.4409,0.4511,0.4514,0.4517,0.4575,0,0,0,0,0,0,0.4037,0.4083,0.4129,0.4223,0.4258,0.4412,0.4393,0.4398,0.4428,0.4425,0.4427,0.4423,0.4413,0.4441,0.4444,0.4467,0.441,0.4509,0.4513,0.4516,0.457,0.4579,0.4587,0,0,0,0,0,0.4023,0.4112,0.4132,0.4166,0.433,0.4414,0.4424,0.4441,0.443,0.4445,0.4452,0.4423,0.4467,0.4444,0.4447,0.4471,0.4507,0.4511,0.4516,0.4566,0.4577,0.4587,0,0,0,0,0,0,0.3945,0.4122,0.4145,0.428,0.4334,0.4411,0.4439,0.4448,0.4471,0.4464,0.4455,0.4454,0.4484,0.448,0.4454,0.4516,0.4481,0.4486,0.4518,0.4528,0.4537,0.4535,0.4411,0,0,0,0,0,0.3957,0.4086,0.4189,0.4294,0.4327,0.438,0.441,0.4427,0.4468,0.4476,0.4483,0.4493,0.4512,0.4519,0.4533,0.4574,0.4617,0.4591,0.46,0.4607,0.461,0.4693,0.4709,0.4534,0.4534,0.4534,0,0,0.3957,0.4069,0.4139,0.4285,0.4335,0.4386,0.4393,0.4456,0.4485,0.4471,0.4512,0.4523,0.453,0.4571,0.4584,0.4565,0.4693,0.4613,0.4619,0.4618,0.4699,0.4716,0.4732,0.4537,0.4536,0.4536,0,0,0.4,0.4122,0.4215,0.4268,0.4355,0.4397,0.4414,0.4492,0.451,0.456,0.4555,0.4588,0.4618,0.4635,0.4644,0.4714,0.4735,0.4714,0.4755,0.4836,0.4851,0.4865,0.4998,0.5023,0.4718,0.4718,0.4718,0,0.3971,0.413,0.4237,0.4305,0.4348,0.4401,0.4449,0.449,0.4557,0.4578,0.4573,0.4646,0.4651,0.4704,0.4728,0.4732,0.4798,0.4711,0.4847,0.4861,0.4874,0.5007,0.5033,0.4722,0.4721,0.4721,0.4721,0,0.4072,0.4165,0.4222,0.4346,0.4391,0.4459,0.452,0.456,0.4591,0.4622,0.4685,0.472,0.4756,0.4772,0.4771,0.4861,0.489,0.4848,0.4818,0.4895,0.5031,0.5058,0.4726,0.4725,0.4724,0.4723,0,0,0.4102,0.4262,0.4274,0.4316,0.4422,0.4475,0.4531,0.4603,0.4656,0.4697,0.4774,0.4809,0.4826,0.484,0.4856,0.493,0.5099,0.4932,0.4935,0.5062,0.5333,0.5259,0.5281,0.5079,0.5083,0.5086,0.5413,0,0.4137,0.4256,0.4331,0.4411,0.4473,0.4529,0.4585,0.4641,0.4705,0.4793,0.4827,0.4911,0.4852,0.491,0.4958,0.5065,0.5163,0.5017,0.5242,0.525,0.517,0.5305,0.5024,0.5281,0.5439,0.5444,0.5447,0,0.4207,0.4285,0.4365,0.4467,0.4498,0.4541,0.4651,0.4709,0.4815,0.4868,0.4925,0.498,0.5088,0.5048,0.5235,0.5147,0.5244,0.5325,0.5338,0.5257,0.5222,0.522,0.5324,0.5191,0.5488,0.5484,0.5481,0,0.4188,0.4307,0.4374,0.441,0.4527,0.4563,0.4623,0.4722,0.478,0.4941,0.5013,0.5118,0.5201,0.5317,0.5425,0.537,0.5657,0.5601,0.5636,0.5635,0.5431,0.5404,0.5417,0.576,0.5759,0.5759,0.5758,0,0.422,0.4272,0.4371,0.441,0.4481,0.4564,0.4646,0.4727,0.4851,0.4928,0.5044,0.5131,0.5269,0.5417,0.5514,0.5653,0.5722,0.5687,0.5713,0.5449,0.5421,0.5319,0.5268,0.5771,0.5768,0.5766,0.5764,0,0.4189,0.4261,0.4338,0.4447,0.4475,0.4524,0.4623,0.4693,0.4825,0.4946,0.5011,0.5179,0.5376,0.5525,0.5764,0.576,0.5778,0.5961,0.5667,0.5649,0.5508,0.5471,0.5393,0.5247,0.6084,0.6084,0.6084,0,0.4189,0.423,0.4328,0.4359,0.4406,0.4479,0.4528,0.4655,0.473,0.4949,0.501,0.5244,0.5365,0.5682,0.5758,0.5968,0.5795,0.5827,0.564,0.5497,0.5478,0.5288,0.5155,0.5446,0.544,0.5436,0.5433,0,0.4181,0.4213,0.4268,0.4318,0.4369,0.4413,0.45,0.4539,0.4706,0.4814,0.4965,0.5103,0.5372,0.5419,0.5669,0.5741,0.5521,0.5746,0.5653,0.5033,0.4771,0.4641,0.5291,0.5395,0.5399,0.5402,0.5404,0.5405,0.4167,0.4177,0.4237,0.4265,0.4314,0.4333,0.4307,0.4418,0.4495,0.4599,0.4825,0.4901,0.5078,0.536,0.5406,0.5285,0.5317,0.5148,0.5152,0.5003,0.4705,0.5301,0.5372,0.5376,0.5379,0.5381,0.5384,0,0.4119,0.4132,0.4175,0.419,0.417,0.4228,0.4265,0.4201,0.4211,0.4366,0.4477,0.4574,0.4665,0.4776,0.482,0.4707,0.4492,0.4604,0.4246,0.4175,0.4764,0.457,0.4395,0.4396,0.4396,0.4396,0.4396,0.4396,0.4106,0.4095,0.409,0.4025,0.402,0.3915,0.3879,0.3821,0.3847,0.3818,0.3814,0.3969,0.4269,0.4469,0.4367,0.4264,0.3968,0.3795,0.387,0.4257,0.4305,0.435,0.4153,0.3895,0.3894,0.3033,0.3027,0.3022]},{"header":{"parameterUnit":"m.s-1","parameterCategory":2,"la1":30.2991,"la2":30.254,"lo1":-89.0895,"lo2":-89.0444,"dy":0.0017,"dx":0.0017,"nx":28,"ny":28,"refTime":"2025-07-09T09:00:00:Z","depth":"0","parameterNumber":3,"parameterNumberName":"V-component_of_CURRENTS"},"data":[0,0,0,0,0,0,0,0,0,0,0,0,0,0,0,0,0,0,0,0,0,0,0,0,0,0,0,0,0,0,0,0,0,0,0,0,0,0,0,0,0,0,0,0,0,0,0,0,0,0,0,0,0,0,0,0,0,0,-0.019,-0.0191,0,-0.0311,-0.0312,-0.0313,-0.0351,-0.0351,-0.035,-0.035,-0.0511,-0.0516,-0.052,0,0,0,0,0,0,0,0,0,0,0,0,0,-0.0019,-0.0021,-0.0189,-0.0191,-0.0193,-0.0311,-0.0312,-0.0314,-0.0351,-0.0351,-0.035,-0.035,-0.051,-0.0515,-0.0521,0,0,0,0,0,0,0,0,0,0,0,0,0,-0.011,-0.0022,-0.0189,-0.0227,-0.0232,-0.031,-0.0312,-0.0314,-0.0351,-0.0351,-0.035,-0.035,-0.0508,-0.0515,-0.0521,-0.0577,0,0,-0.0543,-0.0546,0,0,0,0,0,0,0,0,-0.0104,-0.0116,-0.022,-0.0225,-0.023,-0.0317,-0.0311,-0.0405,-0.0352,-0.0304,-0.035,-0.0349,-0.0452,-0.0463,-0.0484,-0.0584,-0.0591,-0.0543,-0.0548,-0.0551,-0.0553,0,0,0,0,0,0,0,-0.0098,-0.0111,-0.0236,-0.0222,-0.0228,-0.0248,-0.026,-0.0329,-0.0379,-0.0308,-0.0312,-0.0329,-0.0454,-0.0477,-0.0488,-0.0593,-0.0543,-0.0549,-0.0554,-0.0557,-0.0728,-0.0728,0,0,0,0,0,0,-0.0087,-0.0105,-0.0232,-0.0239,-0.0167,-0.0252,-0.0265,-0.0288,-0.0377,-0.0391,-0.0329,-0.033,-0.0465,-0.048,-0.0494,-0.0525,-0.0551,-0.0557,-0.0561,-0.0727,-0.0728,-0.0728,0,0,0,0,0,0,-0.0083,-0.0097,-0.0227,-0.0176,-0.0194,-0.0255,-0.0281,-0.0291,-0.0313,-0.0393,-0.0407,-0.034,-0.0466,-0.0484,-0.0555,-0.0533,-0.056,-0.0567,-0.0727,-0.0727,-0.0728,-0.0613,0,0,0,0,0,0,-0.0077,-0.0095,-0.0102,-0.0175,-0.0197,-0.0265,-0.0282,-0.0294,-0.0325,-0.0327,-0.0408,-0.0422,-0.0467,-0.0544,-0.0562,-0.0543,-0.0572,-0.0726,-0.0727,-0.0728,-0.0617,-0.061,-0.0604,0,0,0,0,0,-0.0071,-0.0086,-0.0102,-0.0117,-0.0207,-0.0266,-0.0278,-0.0318,-0.0326,-0.0335,-0.0392,-0.0419,-0.056,-0.0551,-0.0572,-0.0554,-0.0726,-0.0727,-0.0728,-0.0619,-0.0611,-0.0604,0,0,0,0,0,0,-0.0017,-0.0094,-0.0113,-0.0151,-0.0199,-0.0273,-0.0284,-0.0317,-0.0369,-0.0368,-0.0439,-0.0458,-0.0509,-0.0559,-0.0547,-0.0608,-0.0643,-0.0648,-0.0553,-0.0546,-0.054,-0.0477,-0.0578,0,0,0,0,0,-0.0009,-0.0039,-0.0111,-0.0139,-0.0158,-0.022,-0.0247,-0.0277,-0.0336,-0.0357,-0.0413,-0.0474,-0.0531,-0.0559,-0.0622,-0.0664,-0.0662,-0.0665,-0.0658,-0.0652,-0.0617,-0.06,-0.0587,-0.0731,-0.0731,-0.0731,0,0,0.0003,-0.0042,-0.006,-0.0129,-0.0165,-0.0176,-0.0233,-0.027,-0.0272,-0.0369,-0.0389,-0.0463,-0.0542,-0.0581,-0.0607,-0.0617,-0.0613,-0.0653,-0.0647,-0.0615,-0.0599,-0.0584,-0.0571,-0.0731,-0.0731,-0.0731,0,0,0.0026,-0.0023,-0.0029,-0.0059,-0.0113,-0.015,-0.0157,-0.0226,-0.0245,-0.0296,-0.0353,-0.0405,-0.0507,-0.0534,-0.0568,-0.0569,-0.0587,-0.0603,-0.051,-0.0494,-0.048,-0.0468,-0.0442,-0.0428,-0.059,-0.0589,-0.0589,0,0.0051,0.0035,-0.0038,-0.0038,-0.0045,-0.0128,-0.0113,-0.0152,-0.0233,-0.0232,-0.0286,-0.0388,-0.0469,-0.0478,-0.0487,-0.0546,-0.0542,-0.0527,-0.0479,-0.0467,-0.0456,-0.0433,-0.0419,-0.0584,-0.0584,-0.0585,-0.0586,0,0.0076,0.0077,0.0075,0.0055,0.0032,0.0026,-0.0029,-0.0043,-0.0087,-0.0123,-0.0157,-0.0267,-0.0314,-0.0359,-0.0434,-0.0402,-0.0424,-0.0475,-0.0481,-0.0434,-0.0414,-0.0401,-0.0576,-0.0578,-0.058,-0.0581,0,0,0.0109,0.01,0.0104,0.014,0.009,0.0084,0.0086,0.0077,0.0114,0.0018,0.0068,-0.0067,-0.0122,-0.0164,-0.0255,-0.0256,-0.0207,-0.0332,-0.0333,-0.0274,-0.0155,-0.0203,-0.0195,-0.0248,-0.0245,-0.0243,-0.0167,0,0.0166,0.0219,0.0179,0.0245,0.0282,0.0229,0.0249,0.0229,0.0194,0.0216,0.0124,0.011,-0.0049,-0.0063,-0.0096,-0.0179,-0.0171,-0.0222,-0.0237,-0.0236,-0.0259,-0.0181,-0.0218,-0.0156,-0.0156,-0.0154,-0.0152,0,0.022,0.0254,0.0337,0.0392,0.0401,0.0425,0.0475,0.0475,0.0471,0.0448,0.0414,0.0332,0.0297,0.0164,0.0081,0.0054,-0.0035,-0.01,-0.0099,-0.0166,-0.026,-0.021,-0.0135,-0.0372,-0.0134,-0.0135,-0.0137,0,0.0327,0.0372,0.0459,0.0473,0.0506,0.0551,0.0564,0.0565,0.0604,0.0617,0.0662,0.0569,0.0559,0.0437,0.0241,0.0178,0.0178,0.0076,-0.0036,-0.004,-0.0084,-0.0096,-0.0209,0.0061,0.006,0.006,0.006,0,0.0422,0.0496,0.053,0.0585,0.0701,0.0674,0.0786,0.0787,0.0828,0.0918,0.0797,0.0864,0.0626,0.0564,0.0367,0.0215,0.0274,0.0021,-0.001,-0.005,-0.0059,-0.0281,-0.0415,0.0063,0.0062,0.0062,0.0061,0,0.0543,0.056,0.0671,0.0733,0.0764,0.0851,0.0931,0.1006,0.1029,0.1159,0.1182,0.1118,0.1035,0.0803,0.0628,0.0401,0.0117,0.0183,0.0153,0.0115,-0.0251,-0.0377,-0.0492,-0.0589,0.0084,0.0084,0.0083,0,0.0618,0.0689,0.0791,0.0859,0.0899,0.1008,0.1084,0.1115,0.1203,0.1325,0.1416,0.138,0.1374,0.1098,0.0707,0.0409,0.0156,0.0154,0.0008,-0.0237,-0.04,-0.0505,-0.0585,0.0,-0.0001,-0.0002,-0.0003,0,0.0758,0.0789,0.0866,0.0998,0.1099,0.1218,0.1335,0.144,0.1507,0.1639,0.1792,0.1815,0.1535,0.1207,0.0757,0.0503,-0.0035,0.0125,-0.0113,-0.0446,-0.0577,-0.0697,-0.0084,-0.001,-0.001,-0.0009,-0.0009,-0.0008,0.085,0.0922,0.1004,0.1132,0.125,0.1406,0.152,0.1665,0.185,0.206,0.207,0.2148,0.163,0.1011,0.0645,-0.009,-0.0078,-0.0344,-0.046,-0.053,-0.0678,-0.0078,-0.0067,-0.0067,-0.0066,-0.0066,-0.0066,0,0.0936,0.1001,0.1125,0.1268,0.1407,0.1452,0.1664,0.1794,0.2035,0.224,0.2387,0.2162,0.1545,0.0879,-0.0082,-0.0587,-0.0784,-0.0869,-0.104,-0.1083,-0.0529,-0.0594,-0.0715,-0.0714,-0.0714,-0.0714,-0.0714,-0.0713,0.0981,0.1087,0.1141,0.1366,0.1477,0.1664,0.179,0.2015,0.2188,0.243,0.2475,0.2481,0.1946,0.027,-0.0871,-0.1137,-0.1489,-0.1579,-0.1709,-0.138,-0.1341,-0.1304,-0.1397,-0.1684,-0.1686,-0.223,-0.2236,-0.224]}],[{"header":{"parameterUnit":"m.s-1","parameterCategory":2,"la1":30.2991,"la2":30.254,"lo1":-89.0895,"lo2":-89.0444,"dy":0.0017,"dx":0.0017,"nx":28,"ny":28,"refTime":"2025-07-09T09:00:00:Z","depth":"2","parameterNumber":2,"parameterNumberName":"U-component_of_CURRENTS"},"data":[0,0,0,0,0,0,0,0,0,0,0,0,0,0,0,0,0,0,0,0,0,0,0,0,0,0,0,0,0,0,0,0,0,0,0,0,0,0,0,0,0,0,0,0,0,0,0,0,0,0,0,0,0,0,0,0,0,0,0.3032,0.3033,0,0.2985,0.2983,0.2981,0.297,0.2972,0.2975,0.2977,0.3061,0.3061,0.3062,0,0,0,0,0,0,0,0,0,0,0,0,0,0.2904,0.2906,0.3032,0.3034,0.3035,0.2985,0.2983,0.298,0.297,0.2973,0.2975,0.2978,0.3061,0.3061,0.3062,0,0,0,0,0,0,0,0,0,0,0,0,0,0.29,0.2907,0.3032,0.3039,0.3041,0.2986,0.2983,0.2979,0.2969,0.2973,0.2976,0.2979,0.3061,0.3061,0.3062,0.2996,0,0,0.3062,0.3063,0,0,0,0,0,0,0,0,0.29,0.2902,0.3037,0.3039,0.3041,0.3005,0.297,0.2999,0.2968,0.2974,0.2977,0.2981,0.3066,0.3066,0.3018,0.3,0.3004,0.3062,0.3063,0.3063,0.3063,0,0,0,0,0,0,0,0.2901,0.2903,0.2992,0.3038,0.3041,0.2975,0.2977,0.2972,0.2988,0.2974,0.2979,0.3005,0.3065,0.3017,0.3021,0.3005,0.3062,0.3063,0.3063,0.3063,0.3168,0.317,0,0,0,0,0,0,0.2956,0.2904,0.2994,0.2993,0.3,0.2976,0.2978,0.2996,0.2986,0.2992,0.3002,0.3005,0.3015,0.302,0.3024,0.3164,0.3063,0.3063,0.3063,0.3165,0.3168,0.3171,0,0,0,0,0,0,0.2953,0.2963,0.2997,0.2964,0.2967,0.2979,0.2996,0.2994,0.3017,0.3009,0.3015,0.3041,0.3018,0.3024,0.3084,0.316,0.3063,0.3063,0.3162,0.3166,0.317,0.3306,0,0,0,0,0,0,0.2949,0.2962,0.2997,0.2968,0.2972,0.3088,0.2996,0.2991,0.3035,0.3039,0.3043,0.3049,0.3021,0.3084,0.3084,0.3159,0.3063,0.3159,0.3164,0.3168,0.3298,0.3314,0.3327,0,0,0,0,0,0.2944,0.305,0.2998,0.3011,0.3018,0.3096,0.3092,0.3093,0.3035,0.3107,0.3062,0.3053,0.3117,0.3085,0.3085,0.3162,0.3156,0.3162,0.3168,0.3291,0.3311,0.3327,0,0,0,0,0,0,0.3018,0.3058,0.3002,0.3109,0.3136,0.3105,0.317,0.3126,0.3129,0.3125,0.3071,0.3077,0.317,0.3138,0.3104,0.3207,0.3141,0.3147,0.3234,0.3252,0.3267,0.3301,0.3064,0,0,0,0,0,0.304,0.3124,0.3128,0.3208,0.3232,0.3179,0.3203,0.3199,0.3197,0.32,0.318,0.3162,0.3174,0.3196,0.321,0.3248,0.3293,0.3302,0.3317,0.333,0.3358,0.346,0.3487,0.3191,0.3191,0.319,0,0,0.3071,0.3119,0.3151,0.3228,0.322,0.3222,0.3203,0.3287,0.3263,0.321,0.32,0.323,0.32,0.3258,0.3296,0.3252,0.345,0.3337,0.3348,0.337,0.3469,0.3498,0.3524,0.3195,0.3194,0.3193,0,0,0.3171,0.3231,0.3296,0.3319,0.3373,0.3345,0.3386,0.3379,0.3383,0.3378,0.3341,0.3421,0.3388,0.3412,0.3401,0.3504,0.3536,0.3519,0.361,0.3709,0.3735,0.3758,0.391,0.3945,0.3513,0.3513,0.3513,0,0.3157,0.3268,0.3335,0.3371,0.3405,0.3395,0.3428,0.3397,0.3402,0.3429,0.3417,0.3442,0.3452,0.3513,0.3564,0.3543,0.3622,0.3541,0.3731,0.3754,0.3776,0.3925,0.3963,0.352,0.3519,0.3519,0.3518,0,0.3285,0.333,0.3398,0.3401,0.3453,0.3531,0.35,0.353,0.3514,0.3486,0.3597,0.3611,0.3662,0.3671,0.3642,0.3806,0.3828,0.3751,0.369,0.3814,0.3964,0.4001,0.3531,0.3528,0.3526,0.3524,0,0,0.3321,0.344,0.3451,0.3469,0.3499,0.3564,0.3546,0.3589,0.3634,0.3626,0.3729,0.3749,0.3835,0.3836,0.3861,0.3932,0.418,0.3927,0.3929,0.4088,0.4471,0.4216,0.4232,0.4144,0.4149,0.4154,0.4536,0,0.3365,0.3469,0.3521,0.3572,0.3625,0.3626,0.3644,0.367,0.3707,0.3805,0.3835,0.3962,0.3865,0.4002,0.4044,0.4161,0.4274,0.4088,0.4318,0.4326,0.409,0.4262,0.3903,0.4187,0.4572,0.4578,0.4582,0,0.3462,0.3538,0.3623,0.3723,0.3753,0.3775,0.3902,0.3922,0.4002,0.4059,0.4146,0.4202,0.4352,0.4272,0.4469,0.4365,0.4461,0.4504,0.4518,0.4252,0.4135,0.4112,0.4238,0.4643,0.4638,0.4633,0.4629,0,0.3534,0.3618,0.3723,0.3738,0.3816,0.3888,0.3954,0.4031,0.4083,0.4295,0.4391,0.4519,0.4653,0.4739,0.4766,0.4703,0.4968,0.4886,0.4745,0.4732,0.4453,0.44,0.5075,0.5074,0.5073,0.5072,0.5071,0,0.3584,0.366,0.3782,0.3819,0.3957,0.403,0.4178,0.4243,0.4388,0.4473,0.4586,0.4682,0.4778,0.4875,0.491,0.4912,0.5085,0.4823,0.4812,0.449,0.4438,0.4817,0.4781,0.5086,0.5083,0.508,0.5078,0,0.3587,0.3672,0.3781,0.3925,0.3978,0.4091,0.4228,0.4315,0.4499,0.4632,0.4729,0.4872,0.5009,0.5039,0.5223,0.5078,0.514,0.5105,0.473,0.4661,0.4843,0.4811,0.5076,0.507,0.5065,0.5061,0.5058,0,0.3597,0.3663,0.3817,0.387,0.393,0.4087,0.416,0.4338,0.4414,0.468,0.4737,0.4957,0.4963,0.5092,0.4999,0.5037,0.5113,0.4689,0.4448,0.488,0.4845,0.482,0.4796,0.4213,0.4203,0.4195,0.4188,0,0.3577,0.3644,0.3695,0.3802,0.3901,0.3982,0.413,0.4174,0.4387,0.4492,0.4626,0.4695,0.4821,0.4621,0.4627,0.4583,0.4634,0.4514,0.5136,0.418,0.407,0.4032,0.4038,0.4114,0.4122,0.4127,0.4131,0.4134,0.3544,0.3544,0.3611,0.3681,0.3787,0.3838,0.3828,0.3964,0.4028,0.4075,0.4283,0.4228,0.4305,0.4069,0.3988,0.3945,0.4236,0.4043,0.407,0.4105,0.3848,0.3724,0.3665,0.367,0.3674,0.3677,0.368,0,0.3361,0.3402,0.3479,0.352,0.3519,0.3677,0.3742,0.3659,0.3633,0.3706,0.3706,0.337,0.3271,0.3399,0.3217,0.3206,0.3202,0.3088,0.3064,0.3139,0.3206,0.2901,0.247,0.2466,0.2463,0.2459,0,0,0.3299,0.3246,0.3258,0.322,0.3275,0.3214,0.3206,0.3146,0.3143,0.2923,0.2841,0.2972,0.3218,0.2743,0.2733,0.2573,0.2827,0.2482,0.3458,0.35,0.3561,0.3767,0.3383,0,0,0,0,0]},{"header":{"parameterUnit":"m.s-1","parameterCategory":2,"la1":30.2991,"la2":30.254,"lo1":-89.0895,"lo2":-89.0444,"dy":0.0017,"dx":0.0017,"nx":28,"ny":28,"refTime":"2025-07-09T09:00:00:Z","depth":"2","parameterNumber":3,"parameterNumberName":"V-component_of_CURRENTS"},"data":[0,0,0,0,0,0,0,0,0,0,0,0,0,0,0,0,0,0,0,0,0,0,0,0,0,0,0,0,0,0,0,0,0,0,0,0,0,0,0,0,0,0,0,0,0,0,0,0,0,0,0,0,0,0,0,0,0,0,-0.0139,-0.0139,0,-0.0153,-0.0153,-0.0154,-0.0183,-0.0183,-0.0183,-0.0184,-0.0361,-0.0366,-0.037,0,0,0,0,0,0,0,0,0,0,0,0,0,-0.0068,-0.0069,-0.0139,-0.0139,-0.0139,-0.0153,-0.0153,-0.0154,-0.0182,-0.0183,-0.0183,-0.0184,-0.036,-0.0365,-0.037,0,0,0,0,0,0,0,0,0,0,0,0,0,-0.0094,-0.007,-0.0139,-0.0153,-0.0154,-0.0153,-0.0153,-0.0154,-0.0182,-0.0183,-0.0183,-0.0184,-0.0358,-0.0365,-0.0371,-0.0402,0,0,-0.0391,-0.0394,0,0,0,0,0,0,0,0,-0.0093,-0.0098,-0.0151,-0.0152,-0.0153,-0.0164,-0.0193,-0.0244,-0.0182,-0.0174,-0.0184,-0.0184,-0.0309,-0.0319,-0.0322,-0.041,-0.0418,-0.0392,-0.0396,-0.0399,-0.0401,0,0,0,0,0,0,0,-0.0091,-0.0097,-0.0147,-0.0151,-0.0152,-0.0134,-0.014,-0.0202,-0.0244,-0.0175,-0.0177,-0.0174,-0.0311,-0.0316,-0.0327,-0.0421,-0.0392,-0.0398,-0.0402,-0.0404,-0.0644,-0.0647,0,0,0,0,0,0,-0.0088,-0.0095,-0.0147,-0.0147,-0.0121,-0.0135,-0.0141,-0.0162,-0.0239,-0.0249,-0.0173,-0.0175,-0.0304,-0.0319,-0.0334,-0.0427,-0.0399,-0.0405,-0.0409,-0.0642,-0.0645,-0.0647,0,0,0,0,0,0,-0.0087,-0.0093,-0.0146,-0.0118,-0.0123,-0.0136,-0.0159,-0.0162,-0.0187,-0.0236,-0.025,-0.0197,-0.0305,-0.0324,-0.0415,-0.0433,-0.0408,-0.0414,-0.0639,-0.0643,-0.0646,-0.0582,0,0,0,0,0,0,-0.0085,-0.0093,-0.0099,-0.0119,-0.0125,-0.0196,-0.0159,-0.0162,-0.0182,-0.0185,-0.026,-0.0276,-0.0307,-0.0405,-0.0421,-0.0442,-0.0419,-0.0636,-0.0641,-0.0645,-0.0582,-0.0583,-0.0585,0,0,0,0,0,-0.0083,-0.0107,-0.01,-0.0105,-0.0136,-0.0199,-0.0203,-0.0212,-0.0182,-0.0228,-0.0256,-0.0274,-0.0445,-0.0412,-0.0431,-0.0453,-0.0634,-0.064,-0.0645,-0.0581,-0.0583,-0.0585,0,0,0,0,0,0,-0.0072,-0.0112,-0.0105,-0.0137,-0.0182,-0.0204,-0.0219,-0.0222,-0.0272,-0.0264,-0.0302,-0.0322,-0.0412,-0.0453,-0.0415,-0.0542,-0.0545,-0.0554,-0.049,-0.0493,-0.0494,-0.0423,-0.0425,0,0,0,0,0,-0.007,-0.0108,-0.0142,-0.017,-0.0186,-0.0199,-0.0214,-0.0231,-0.0271,-0.0291,-0.0342,-0.0393,-0.0445,-0.0484,-0.0554,-0.0619,-0.0602,-0.0653,-0.0654,-0.0655,-0.0615,-0.0621,-0.0617,-0.0665,-0.0665,-0.0665,0,0,-0.0066,-0.0095,-0.011,-0.0171,-0.0186,-0.0197,-0.0213,-0.0256,-0.0257,-0.0306,-0.0344,-0.0413,-0.047,-0.0541,-0.0584,-0.0577,-0.0635,-0.0662,-0.0661,-0.062,-0.0626,-0.062,-0.0615,-0.0669,-0.0668,-0.0668,0,0,-0.0072,-0.0109,-0.0129,-0.0161,-0.0202,-0.0218,-0.0235,-0.0283,-0.0305,-0.0362,-0.0382,-0.0452,-0.0553,-0.0579,-0.06,-0.0659,-0.0651,-0.0708,-0.0644,-0.0652,-0.0646,-0.064,-0.0598,-0.0589,-0.0698,-0.0698,-0.0698,0,-0.0048,-0.0077,-0.0148,-0.016,-0.0156,-0.0221,-0.0214,-0.0251,-0.0326,-0.0331,-0.0381,-0.0475,-0.0552,-0.0564,-0.0593,-0.0654,-0.0641,-0.062,-0.0645,-0.064,-0.0635,-0.0594,-0.0584,-0.0695,-0.0696,-0.0696,-0.0696,0,-0.0059,-0.0064,-0.0082,-0.0105,-0.0134,-0.0156,-0.0198,-0.0241,-0.0273,-0.0297,-0.0362,-0.046,-0.0495,-0.056,-0.0591,-0.0601,-0.0595,-0.0647,-0.0617,-0.0624,-0.0583,-0.0574,-0.0692,-0.0693,-0.0694,-0.0694,0,0,-0.0021,-0.0071,-0.0063,-0.0037,-0.0096,-0.0109,-0.013,-0.0155,-0.0115,-0.0244,-0.0195,-0.0342,-0.0386,-0.0414,-0.0482,-0.0507,-0.0485,-0.0556,-0.0557,-0.047,-0.0455,-0.0542,-0.0541,-0.0538,-0.0536,-0.0535,-0.0432,0,0.0017,0.0036,-0.0012,0.0029,0.0047,-0.0006,0.0,-0.0035,-0.0079,-0.0071,-0.0172,-0.0176,-0.0329,-0.0323,-0.0387,-0.0448,-0.0462,-0.0504,-0.0498,-0.0496,-0.0538,-0.0535,-0.0516,-0.0432,-0.0424,-0.0422,-0.0421,0,0.0056,0.0061,0.0116,0.0143,0.015,0.0173,0.0208,0.02,0.0176,0.0146,0.01,0.003,-0.0015,-0.0142,-0.0243,-0.0261,-0.0346,-0.0412,-0.0411,-0.0498,-0.0569,-0.0433,-0.0416,-0.0407,-0.0408,-0.0409,-0.041,0,0.0158,0.0171,0.0232,0.0238,0.024,0.0283,0.03,0.0286,0.0319,0.0329,0.0374,0.0259,0.027,0.0116,-0.0079,-0.0136,-0.017,-0.0262,-0.0411,-0.0415,-0.0398,-0.0406,-0.0313,-0.0313,-0.0314,-0.0314,-0.0314,0,0.0239,0.0292,0.0304,0.0343,0.0441,0.0415,0.0525,0.0518,0.0562,0.0642,0.0525,0.0575,0.0332,0.025,0.0039,-0.015,-0.0081,-0.037,-0.0399,-0.0382,-0.0389,-0.0379,-0.0388,-0.031,-0.0311,-0.0312,-0.0312,0,0.0348,0.0352,0.0423,0.0463,0.0496,0.0581,0.0681,0.0749,0.0792,0.0913,0.0942,0.0861,0.0742,0.049,0.0283,0.004,-0.0148,-0.0232,-0.0179,-0.0209,-0.0404,-0.0412,-0.036,-0.0363,-0.0365,-0.0366,-0.0368,0,0.0405,0.0454,0.0528,0.0586,0.062,0.0738,0.0812,0.0865,0.0945,0.1077,0.1148,0.1101,0.1034,0.0704,0.0294,-0.0041,-0.0112,-0.0249,-0.0402,-0.0377,-0.041,-0.0415,-0.042,-0.0326,-0.0327,-0.0327,-0.0328,0,0.05,0.0531,0.0579,0.069,0.0792,0.0903,0.103,0.113,0.1215,0.1339,0.1455,0.1442,0.1127,0.0755,0.0279,0.0028,-0.0214,-0.0282,-0.022,-0.036,-0.035,-0.0382,-0.0386,-0.0335,-0.0334,-0.0334,-0.0333,-0.0333,0.056,0.0614,0.0673,0.0789,0.0899,0.1041,0.1166,0.1308,0.1477,0.1656,0.1621,0.1615,0.1223,0.0577,0.0178,-0.0252,-0.0263,-0.0437,-0.0431,-0.0425,-0.0484,-0.0483,-0.0498,-0.0498,-0.0498,-0.0498,-0.0498,0,0.0616,0.0671,0.0764,0.0887,0.1017,0.1079,0.1277,0.1421,0.1653,0.1751,0.1835,0.1454,0.106,0.0634,-0.0017,-0.042,-0.0434,-0.0534,-0.0464,-0.0455,-0.0449,-0.0507,-0.0527,-0.0527,-0.0528,-0.0529,0,0,0.0639,0.0729,0.0774,0.0967,0.1076,0.1272,0.1407,0.1639,0.1761,0.1855,0.183,0.1714,0.1185,0.0707,0.0185,-0.0164,-0.0218,-0.0236,-0.0178,-0.0027,-0.0015,-0.0367,-0.0445,0,0,0,0,0]}],[{"header":{"parameterUnit":"m.s-1","parameterCategory":2,"la1":30.2991,"la2":30.254,"lo1":-89.0895,"lo2":-89.0444,"dy":0.0017,"dx":0.0017,"nx":28,"ny":28,"refTime":"2025-07-09T09:00:00:Z","depth":"4","parameterNumber":2,"parameterNumberName":"U-component_of_CURRENTS"},"data":[0,0,0,0,0,0,0,0,0,0,0,0,0,0,0,0,0,0,0,0,0,0,0,0,0,0,0,0,0,0,0,0,0,0,0,0,0,0,0,0,0,0,0,0,0,0,0,0,0,0,0,0,0,0,0,0,0,0,0.0919,0.092,0,0.1054,0.1056,0.1058,0.1155,0.1155,0.1155,0.1155,0.1283,0.1286,0.129,0,0,0,0,0,0,0,0,0,0,0,0,0,0.106,0.1055,0.0919,0.092,0.0921,0.1053,0.1056,0.1059,0.1155,0.1155,0.1155,0.1155,0.1282,0.1286,0.129,0,0,0,0,0,0,0,0,0,0,0,0,0,0.1083,0.1054,0.0918,0.0979,0.0986,0.1053,0.1056,0.1059,0.1155,0.1155,0.1155,0.1155,0.1281,0.1286,0.129,0.1317,0,0,0.1306,0.1308,0,0,0,0,0,0,0,0,0.1081,0.1078,0.0969,0.0975,0.0982,0.1081,0.1153,0.1143,0.1154,0.1098,0.1155,0.1155,0.121,0.1221,0.1256,0.1323,0.1329,0.1306,0.1309,0.1311,0.1313,0,0,0,0,0,0,0,0.1079,0.1075,0.098,0.097,0.0978,0.1108,0.1109,0.1153,0.1157,0.1103,0.1108,0.1112,0.1215,0.1251,0.126,0.1331,0.1306,0.131,0.1313,0.1315,0.1475,0.1476,0,0,0,0,0,0,0.103,0.1071,0.0975,0.0983,0.1025,0.1103,0.1105,0.1055,0.1157,0.117,0.1112,0.1116,0.1243,0.1254,0.1265,0.1334,0.1311,0.1316,0.1319,0.1474,0.1475,0.1477,0,0,0,0,0,0,0.1031,0.1018,0.097,0.1029,0.1031,0.1097,0.1043,0.1058,0.1111,0.1162,0.1177,0.115,0.1243,0.1258,0.1335,0.1338,0.1318,0.1322,0.1472,0.1474,0.1476,0.1451,0,0,0,0,0,0,0.1034,0.1016,0.1008,0.1022,0.1025,0.101,0.1042,0.106,0.1108,0.1116,0.12,0.1211,0.1245,0.1327,0.134,0.1344,0.1326,0.1471,0.1473,0.1475,0.145,0.1452,0.1453,0,0,0,0,0,0.1038,0.0992,0.1005,0.0997,0.0993,0.1009,0.1025,0.1081,0.1109,0.1132,0.1204,0.1209,0.135,0.1333,0.1347,0.1353,0.1469,0.1472,0.1475,0.145,0.1452,0.1453,0,0,0,0,0,0,0.106,0.0997,0.1012,0.0954,0.0987,0.1023,0.1051,0.1088,0.1166,0.1185,0.1238,0.1255,0.1329,0.1348,0.1327,0.1408,0.1405,0.1411,0.1381,0.1384,0.1385,0.153,0.133,0,0,0,0,0,0.1054,0.0989,0.0992,0.0953,0.0964,0.1018,0.1047,0.108,0.1129,0.1166,0.1233,0.1296,0.1349,0.1372,0.1434,0.1474,0.1515,0.1485,0.1486,0.1487,0.1616,0.1645,0.1661,0.1486,0.1486,0.1486,0,0,0.1036,0.101,0.0968,0.0955,0.0986,0.1026,0.1037,0.1066,0.1123,0.1165,0.1278,0.132,0.1369,0.1429,0.1458,0.1441,0.1536,0.1491,0.1491,0.1624,0.165,0.1667,0.1683,0.1488,0.1488,0.1487,0,0,0.0996,0.0962,0.0921,0.0954,0.0994,0.1036,0.1043,0.1102,0.1152,0.1249,0.129,0.1359,0.1439,0.1483,0.1508,0.1559,0.1558,0.1537,0.1647,0.1667,0.1683,0.1698,0.167,0.1683,0.1516,0.1516,0.1516,0,0.1016,0.0953,0.0927,0.0947,0.0992,0.1038,0.1077,0.1131,0.1223,0.1276,0.1287,0.1471,0.1485,0.1575,0.1608,0.1567,0.1576,0.1617,0.167,0.1686,0.1702,0.1672,0.1687,0.1515,0.1515,0.1516,0.1516,0,0.0955,0.096,0.0949,0.0982,0.1029,0.1061,0.1128,0.121,0.1285,0.1341,0.1476,0.1541,0.1659,0.1627,0.1655,0.1759,0.1721,0.1672,0.1663,0.1719,0.1681,0.1697,0.1514,0.1514,0.1515,0.1515,0,0,0.0872,0.0904,0.0917,0.0968,0.106,0.109,0.1198,0.1301,0.1377,0.1496,0.1604,0.173,0.179,0.1836,0.1838,0.1886,0.1938,0.1857,0.1858,0.1831,0.1968,0.1909,0.1919,0.1886,0.1891,0.1895,0.1858,0,0.087,0.091,0.0936,0.103,0.1065,0.1175,0.1259,0.1362,0.1464,0.1573,0.1673,0.1792,0.1842,0.1907,0.1967,0.199,0.2001,0.1955,0.1929,0.1931,0.1871,0.1945,0.1911,0.187,0.1874,0.1877,0.1879,0,0.0814,0.086,0.0939,0.1059,0.1086,0.1169,0.1345,0.1432,0.1579,0.1657,0.1826,0.1905,0.2085,0.2061,0.2205,0.2177,0.2125,0.2107,0.2101,0.2116,0.1908,0.1832,0.1908,0.1906,0.1904,0.1902,0.19,0,0.075,0.0866,0.0941,0.0986,0.1124,0.1215,0.1316,0.1465,0.1557,0.1753,0.1862,0.2034,0.2162,0.2212,0.2291,0.2242,0.2383,0.2241,0.2124,0.2112,0.218,0.2166,0.2303,0.2303,0.2304,0.2304,0.2304,0,0.0715,0.077,0.0931,0.0965,0.1076,0.1193,0.133,0.1449,0.1621,0.171,0.193,0.2054,0.2229,0.2335,0.2324,0.2347,0.2401,0.2237,0.2147,0.215,0.2135,0.2184,0.217,0.2302,0.2302,0.2303,0.2303,0,0.0611,0.0708,0.08,0.0978,0.1035,0.1128,0.1336,0.142,0.1631,0.1774,0.1871,0.2118,0.229,0.2416,0.2464,0.2392,0.2385,0.233,0.237,0.2266,0.2059,0.2044,0.218,0.2178,0.2177,0.2176,0.2176,0,0.0562,0.0596,0.0788,0.0842,0.0932,0.1088,0.1165,0.1391,0.147,0.1783,0.1811,0.21,0.2237,0.231,0.2411,0.2418,0.2366,0.2316,0.2214,0.2173,0.2069,0.2056,0.2044,0.2174,0.2174,0.2173,0.2173,0,0.0476,0.0556,0.0631,0.0726,0.0835,0.0962,0.1092,0.1152,0.1393,0.1608,0.1772,0.1933,0.21,0.222,0.2306,0.2269,0.2356,0.2302,0.2301,0.2204,0.2166,0.2062,0.2051,0.2169,0.217,0.217,0.217,0,0.0418,0.0445,0.0529,0.0617,0.0727,0.0803,0.0907,0.1032,0.1173,0.1501,0.1521,0.1829,0.2032,0.2136,0.2183,0.2238,0.2151,0.2025,0.2036,0.2041,0.2034,0.1968,0.1905,0,0,0,0,0,0.037,0.036,0.0404,0.0496,0.0594,0.0663,0.0826,0.0936,0.116,0.1227,0.1387,0.1544,0.1756,0.1897,0.1922,0.208,0.213,0.2095,0.1978,0.2148,0.2152,0.2168,0,0,0,0,0,0,0.0321,0.0343,0.0355,0.0378,0.0409,0.0515,0.0625,0.0777,0.0827,0.1072,0.1203,0.1411,0.1637,0.1726,0.1878,0.192,0.1806,0.2268,0.2263,0.2145,0.2149,0.2153,0.2171,0,0,0,0,0]},{"header":{"parameterUnit":"m.s-1","parameterCategory":2,"la1":30.2991,"la2":30.254,"lo1":-89.0895,"lo2":-89.0444,"dy":0.0017,"dx":0.0017,"nx":28,"ny":28,"refTime":"2025-07-09T09:00:00:Z","depth":"4","parameterNumber":3,"parameterNumberName":"V-component_of_CURRENTS"},"data":[0,0,0,0,0,0,0,0,0,0,0,0,0,0,0,0,0,0,0,0,0,0,0,0,0,0,0,0,0,0,0,0,0,0,0,0,0,0,0,0,0,0,0,0,0,0,0,0,0,0,0,0,0,0,0,0,0,0,0.0372,0.0373,0,0.0373,0.0372,0.0372,0.0321,0.0321,0.032,0.032,0.0253,0.0252,0.0251,0,0,0,0,0,0,0,0,0,0,0,0,0,0.0209,0.0213,0.0372,0.0373,0.0374,0.0373,0.0372,0.0372,0.0321,0.0321,0.032,0.0319,0.0254,0.0252,0.0251,0,0,0,0,0,0,0,0,0,0,0,0,0,0.0245,0.0214,0.0372,0.0354,0.0353,0.0373,0.0372,0.0371,0.0322,0.0321,0.032,0.0319,0.0254,0.0253,0.0251,0.0258,0,0,0.0245,0.0245,0,0,0,0,0,0,0,0,0.0243,0.025,0.0356,0.0356,0.0355,0.0353,0.0291,0.0333,0.0322,0.0325,0.032,0.0319,0.0286,0.0282,0.0274,0.0255,0.0252,0.0245,0.0244,0.0243,0.0243,0,0,0,0,0,0,0,0.0241,0.0249,0.0364,0.0357,0.0356,0.0307,0.0311,0.0298,0.0303,0.0325,0.0323,0.0336,0.0284,0.0276,0.0272,0.0251,0.0245,0.0244,0.0242,0.0242,0.0206,0.0206,0,0,0,0,0,0,0.0265,0.0248,0.0364,0.0365,0.0304,0.0312,0.0316,0.0348,0.0305,0.0301,0.0337,0.0334,0.0279,0.0274,0.0269,0.0271,0.0243,0.0242,0.0241,0.0206,0.0206,0.0206,0,0,0,0,0,0,0.0262,0.0276,0.0365,0.0311,0.032,0.0317,0.0352,0.0349,0.0347,0.0317,0.0309,0.0341,0.0278,0.0272,0.0263,0.0268,0.0241,0.0239,0.0206,0.0206,0.0206,0.0277,0,0,0,0,0,0,0.0257,0.0275,0.0305,0.0314,0.0324,0.0388,0.0354,0.035,0.036,0.0356,0.0318,0.031,0.0277,0.0266,0.0262,0.0265,0.0238,0.0206,0.0206,0.0206,0.0274,0.0279,0.0284,0,0,0,0,0,0.0252,0.0307,0.0306,0.0321,0.0367,0.0391,0.039,0.0378,0.0362,0.037,0.034,0.0312,0.0264,0.0266,0.026,0.0263,0.0206,0.0206,0.0206,0.0272,0.0278,0.0284,0,0,0,0,0,0,0.0254,0.0308,0.0307,0.0377,0.0386,0.0385,0.0407,0.039,0.0373,0.0367,0.0324,0.0315,0.0307,0.0278,0.0281,0.0251,0.0226,0.0225,0.0278,0.0283,0.0288,0.0283,0.0236,0,0,0,0,0,0.0272,0.0324,0.035,0.0402,0.0419,0.0411,0.042,0.0407,0.0399,0.039,0.0365,0.0331,0.0303,0.029,0.0265,0.0259,0.019,0.0252,0.0256,0.0261,0.0252,0.0148,0.0142,0.0207,0.0207,0.0207,0,0,0.0289,0.0325,0.0354,0.0405,0.0416,0.0433,0.0413,0.0438,0.0433,0.0387,0.0382,0.0356,0.0307,0.0294,0.0286,0.027,0.0208,0.0261,0.0265,0.0253,0.0148,0.0141,0.0135,0.0207,0.0207,0.0207,0,0,0.0338,0.0383,0.0434,0.0445,0.0473,0.0465,0.0477,0.0481,0.047,0.0466,0.0424,0.0397,0.0371,0.0325,0.0299,0.0315,0.0241,0.0315,0.0331,0.0232,0.0225,0.0218,0.0131,0.0115,0.0312,0.0312,0.0312,0,0.0343,0.0417,0.0447,0.0482,0.0491,0.0482,0.0504,0.0497,0.0488,0.0471,0.0473,0.0405,0.0375,0.0327,0.0335,0.0324,0.0261,0.0318,0.0236,0.0228,0.022,0.0132,0.0114,0.0315,0.0315,0.0315,0.0314,0,0.0424,0.0464,0.0498,0.0534,0.0543,0.0567,0.056,0.0564,0.055,0.0517,0.0487,0.0448,0.0399,0.0391,0.0372,0.0307,0.0279,0.0259,0.0223,0.0218,0.0125,0.0105,0.032,0.0319,0.0318,0.0317,0,0,0.0469,0.0537,0.0547,0.0552,0.0567,0.0579,0.0586,0.0572,0.0553,0.0538,0.05,0.0466,0.0437,0.0406,0.0376,0.03,0.0202,0.0267,0.026,0.0181,-0.0016,0.002,0.0002,0.0168,0.0165,0.0163,-0.0054,0,0.0509,0.0573,0.0596,0.0621,0.0639,0.0629,0.0625,0.06,0.0573,0.0535,0.0483,0.0449,0.0444,0.0432,0.0353,0.0246,0.0152,0.0262,-0.0001,-0.0009,0.0024,-0.0019,0.0153,-0.0069,-0.0074,-0.0077,-0.008,0,0.0572,0.06,0.0647,0.0642,0.0652,0.0663,0.0641,0.0638,0.0578,0.0555,0.0506,0.0463,0.0384,0.0375,0.0169,0.0243,0.0116,0.0024,0.0012,0.0004,-0.001,-0.0068,-0.0117,-0.0114,-0.0111,-0.0109,-0.0106,0,0.0569,0.0624,0.0658,0.0664,0.067,0.0686,0.0686,0.0644,0.0641,0.0578,0.0561,0.0444,0.04,0.0239,0.0088,0.0116,-0.0167,-0.0162,-0.0263,-0.0262,-0.0261,-0.0251,-0.0353,-0.0353,-0.0353,-0.0352,-0.0351,0,0.0584,0.0602,0.0672,0.0678,0.0708,0.0706,0.072,0.0698,0.067,0.0645,0.0586,0.0538,0.0362,0.0204,0.0054,-0.0156,-0.0203,-0.0279,-0.0324,-0.0223,-0.0207,-0.0275,-0.0263,-0.036,-0.0358,-0.0357,-0.0355,0,0.0563,0.0609,0.0652,0.0696,0.0709,0.074,0.0776,0.0786,0.0755,0.0725,0.0721,0.0585,0.0396,0.0204,-0.0086,-0.0189,-0.0399,-0.0477,-0.0358,-0.0389,-0.0424,-0.0406,-0.0609,-0.0609,-0.061,-0.0611,-0.0611,0,0.0554,0.0585,0.0675,0.0715,0.0746,0.0798,0.0833,0.0835,0.0831,0.075,0.0721,0.0561,0.0453,0.0077,-0.0129,-0.0434,-0.0466,-0.0581,-0.0493,-0.0432,-0.0455,-0.0436,-0.0417,-0.0612,-0.0612,-0.0612,-0.0612,0,0.0537,0.0598,0.0637,0.0719,0.079,0.0871,0.0902,0.0895,0.0878,0.086,0.0722,0.0561,0.0329,0.0073,-0.0165,-0.038,-0.0497,-0.0587,-0.0587,-0.0506,-0.0438,-0.0456,-0.0437,-0.0614,-0.0614,-0.0614,-0.0614,0,0.0538,0.0577,0.065,0.0713,0.0823,0.0904,0.0921,0.0906,0.0905,0.0799,0.074,0.053,0.0389,0.0094,-0.0131,-0.0322,-0.0356,-0.0404,-0.0414,-0.0414,-0.0266,-0.0146,-0.0291,0,0,0,0,0,0.0535,0.0562,0.0625,0.0712,0.0832,0.0887,0.0947,0.0954,0.0918,0.0837,0.0789,0.0585,0.028,0.0133,-0.0053,-0.014,-0.0392,-0.0364,-0.0453,-0.0626,-0.0624,-0.0477,0,0,0,0,0,0,0.053,0.0586,0.0609,0.0717,0.0769,0.0899,0.095,0.0929,0.0858,0.0792,0.0628,0.0546,0.0242,0.0387,-0.0056,-0.0117,-0.0196,-0.0511,-0.0515,-0.0627,-0.0625,-0.0623,-0.0471,0,0,0,0,0]}]]